Location: ???????
(55.4362°N, 38.1183°E)
Time: 18:25:34
(UTC+00:00)

Cosmos 1898 Rocket - Pass Details

Date: 17 June 2021
Orbit: 754 x 783 km, 74.0° (Epoch: 30 July)

Event Time Altitude Azimuth Distance (km) Brightness Sun altitude
Rises 22:15:39 0° 331° (NNW) 3,260 7.6 -10.5°
Reaches altitude 10° 22:18:03 10° 331° (NNW) 2,325 6.8 -10.5°
Maximum altitude 22:23:20 83° 245° (WSW) 778 3.5 -10.3°
Drops below altitude 10° 22:28:33 10° 158° (SSE) 2,290 5.5 -10.1°
Enters shadow 22:29:15 - 157° (SSE) 2,564 5.7 -10.1°
